Location: Giles Town
(35.3245°N, 90.0431°W)
Time: 18:58:16
(UTC+00:00)

Daily predictions for brighter satellites

Satellite Brightness Start Highest point End
(mag) Time Altitude Azimuth Time Altitude Azimuth Time Altitude Azimuth
Milstar 3 Cent rocket 4.2 12:02:44 10° WSW 12:07:13 24° SSW 12:13:56 10° SE
Cosmos 1933 4.4 12:06:49 10° NW 12:09:58 23° W 12:13:06 10° SW
ERS-2 2.1 12:07:42 10° N 12:10:25 35° WNW 12:13:06 10° SW
SAR-Lupe-2 3.5 12:08:05 10° N 12:11:37 59° WNW 12:15:08 10° SSW
PSLV R/B 4.2 12:09:49 10° N 12:13:39 32° WNW 12:17:26 10° SW
COSMO-SKYMED 1 3.8 12:10:19 10° SSW 12:13:44 23° W 12:17:11 10° NW
Cosmos 1862 4.3 12:10:55 10° SW 12:14:00 23° WNW 12:17:07 10° NNW
Cosmos 2151 3.2 12:10:02 10° SSW 12:14:01 44° W 12:18:03 10° N
SeaSat 1 4.5 12:11:45 10° ESE 12:15:36 24° NE 12:19:29 10° N
USA 215 3.7 12:15:24 10° NNE 12:21:26 42° NW 12:27:28 10° WSW
Meteor 1-31 Rocket 2.8 12:19:14 10° NNE 12:23:02 85° ESE 12:26:50 10° S
GENESIS II 4.5 12:20:08 10° SW 12:23:48 44° WNW 12:27:31 10° NNE
BlueWalker 3 3.4 12:26:11 10° WNW 12:29:10 22° SW 12:32:08 10° S
Cosmos 1602 3.9 23:11:07 10° N 23:14:43 46° E 23:18:19 10° SSE
Nadezhda 4 Rocket 4.0 23:08:59 10° S 23:15:03 64° E 23:21:05 10° NNE
Cosmos 1782 3.8 23:15:17 10° SE 23:18:30 25° E 23:21:43 10° NE
Cosmos 1500 3.5 23:20:48 10° NNW 23:24:17 62° W 23:27:46 10° S
Meteosat 1 Rocket2 4.3 23:22:02 10° WSW 23:25:31 33° S 23:29:57 10° ESE
Helios 1B rocket 3.3 23:21:59 10° S 23:25:48 51° W 23:29:38 10° NNW
Cosmos 1812 Rocket 3.6 23:22:14 10° S 23:26:28 59° E 23:30:45 10° NNE
SL-8 R/B 4.5 23:24:06 10° NW 23:28:26 33° NNE 23:32:46 10° E
CZ-4B R/B 3.6 23:25:16 10° SSE 23:28:47 59° ENE 23:32:20 10° N
Cosmos 1603 4.4 23:23:57 10° N 23:28:57 31° ENE 23:33:53 10° ESE
Helios 1A 3.1 23:27:00 10° NNE 23:31:03 51° E 23:35:03 10° S
ISS -3.5 23:29:09 10° NW 23:32:25 48° NE 23:35:40 10° ESE
CZ-2C R/B 2.4 23:32:45 10° WSW 23:34:44 21° SSW 23:36:40 10° SSE
CZ-4B R/B 3.9 23:30:14 10° SE 23:34:56 38° ENE 23:39:31 10° N
H-2A R/B 2.1 23:32:49 10° WSW 23:34:58 36° S 23:39:45 10° ESE
Hubble Space Telescope 3.6 23:33:27 10° SW 23:34:59 12° SSW 23:36:32 10° S
SMAP 3.1 23:31:16 10° SSE 23:35:55 89° WSW 23:40:35 10° NNW
SL-16 R/B 4.0 23:36:40 10° NW 23:41:48 36° WSW 23:46:53 10° SSW
SL-4 R/B 3.7 23:41:10 10° SSE 23:42:23 12° SE 23:43:13 11° ESE
NOAA 6 4.5 23:40:15 10° SE 23:44:57 37° ENE 23:49:38 10° N
Cosmos 1943 3.1 23:47:02 10° NNW 23:52:41 75° ENE 23:58:19 10° SSE
Cosmos-2242 4.1 23:50:10 10° SSW 23:54:20 46° W 23:58:30 10° N
